Total_Precipitation_Accumulation
0.89 0.86 0.78 0.77 0.71 0.77 0.87 0.94 0.89 0.81 0.74 0.68 0.64 0.68 0.71 0.76 0.80 0.85 0.92 0.86 0.93 1.13 1.29 1.29 1.12 0.95 0.92 0.98 0.97 0.94 1.02 1.08 1.07 1.15 1.22 1.23 1.13 0.95 0.81 0.75 0.70 0.61 0.64
0.94 0.90 0.85 0.86 0.83 0.84 0.96 0.94 0.86 0.89 0.87 0.77 0.66 0.65 0.71 0.78 0.84 0.80 0.84 0.93 0.93 0.95 1.21 1.41 1.42 1.18 1.13 1.07 1.08 1.09 1.14 1.10 1.04 1.07 1.13 1.16 1.10 0.97 0.80 0.69 0.69 0.62 0.60
0.84 0.87 0.87 0.87 0.91 0.99 1.04 1.06 0.90 0.90 0.84 0.75 0.70 0.65 0.63 0.66 0.70 0.75 0.73 0.72 0.80 0.86 1.04 1.35 1.54 1.41 1.32 1.27 1.17 1.15 1.21 1.13 1.03 1.00 1.00 0.97 0.93 0.86 0.76 0.72 0.72 0.71 0.68
0.77 0.90 0.91 0.88 0.91 1.03 1.11 1.14 1.05 0.99 0.91 0.86 0.83 0.76 0.69 0.70 0.68 0.75 0.75 0.67 0.79 0.75 0.87 0.99 1.17 1.31 1.35 1.35 1.30 1.23 1.22 1.03 0.91 0.94 0.92 0.84 0.77 0.70 0.65 0.72 0.71 0.73 0.72
0.84 1.01 1.10 1.11 1.11 1.12 1.11 1.06 1.11 1.08 1.04 1.02 0.95 0.91 0.81 0.74 0.76 0.73 0.75 0.77 0.72 0.77 0.84 0.66 0.71 0.80 1.02 1.21 1.31 1.41 1.36 1.08 0.91 0.93 0.95 0.78 0.62 0.59 0.59 0.67 0.67 0.66 0.65
1.19 1.32 1.32 1.40 1.46 1.33 1.28 1.22 1.23 1.18 1.10 1.13 1.05 0.93 0.85 0.74 0.80 0.85 0.85 0.84 0.81 0.76 0.83 0.71 0.63 0.55 0.66 0.91 1.16 1.43 1.56 1.30 1.03 0.94 0.97 0.83 0.60 0.49 0.52 0.60 0.65 0.59 0.58
1.52 1.72 1.69 1.73 1.76 1.62 1.57 1.63 1.82 1.76 1.48 1.25 1.28 1.10 0.91 0.75 0.84 0.88 0.86 0.89 0.90 0.97 1.03 0.91 0.74 0.67 0.56 0.59 0.72 1.12 1.58 1.40 1.22 1.06 1.02 0.94 0.70 0.49 0.44 0.49 0.59 0.59 0.55
1.44 1.57 1.83 1.92 1.84 1.85 1.96 1.99 2.29 2.43 2.00 1.57 1.57 1.66 1.39 1.18 0.90 0.75 0.80 0.83 0.91 1.11 1.13 0.94 0.82 0.71 0.64 0.66 0.46 0.66 1.09 1.24 1.28 1.26 1.16 1.05 0.86 0.60 0.46 0.43 0.49 0.59 0.57
1.41 1.51 1.66 1.82 1.83 1.89 1.98 2.09 2.40 2.85 2.60 2.08 1.84 2.02 1.72 1.52 1.32 0.95 0.76 0.79 0.90 1.09 1.20 1.14 1.05 0.94 0.78 0.81 0.71 0.56 0.58 0.73 1.12 1.41 1.39 1.23 1.01 0.74 0.55 0.50 0.50 0.60 0.58
1.30 1.37 1.51 1.64 1.76 1.78 1.92 2.02 2.12 2.57 2.88 2.57 2.27 1.94 1.61 1.54 1.61 1.40 1.01 0.90 0.95 1.02 1.11 1.09 1.08 1.16 1.06 0.98 0.89 0.63 0.50 0.47 0.82 1.28 1.54 1.51 1.25 1.01 0.82 0.68 0.61 0.69 0.67
1.40 1.39 1.53 1.60 1.61 1.67 1.77 2.10 2.35 2.60 2.78 2.71 2.60 2.43 2.18 1.87 1.50 1.57 1.51 1.24 1.12 1.04 1.06 1.11 1.14 1.17 1.16 1.14 1.21 0.87 0.59 0.50 0.57 0.98 1.49 1.77 1.63 1.35 1.13 0.96 0.82 0.83 0.86
1.49 1.53 1.59 1.59 1.56 1.59 1.70 1.92 2.20 2.41 2.72 2.88 2.76 2.54 2.38 2.21 1.96 1.80 1.60 1.49 1.43 1.20 1.13 1.14 1.10 1.15 1.23 1.32 1.30 1.24 0.79 0.51 0.47 0.64 1.03 1.47 1.70 1.61 1.42 1.28 1.11 1.04 1.04
1.38 1.41 1.52 1.64 1.72 1.74 1.85 2.03 2.17 2.08 2.30 2.67 2.65 2.49 2.35 2.10 2.06 2.11 1.94 1.66 1.49 1.19 1.12 1.11 1.06 1.17 1.20 1.22 1.41 1.58 1.03 0.66 0.51 0.57 0.69 0.91 1.21 1.47 1.61 1.60 1.50 1.40 1.31
1.34 1.27 1.32 1.43 1.57 1.73 1.78 1.83 1.84 1.81 1.94 2.18 2.26 2.41 2.49 2.22 2.05 1.93 1.85 1.87 1.63 1.39 1.22 1.10 1.02 1.05 1.10 1.15 1.37 1.54 1.11 0.86 0.62 0.55 0.56 0.67 0.80 0.93 1.17 1.38 1.59 1.67 1.65
1.10 1.02 1.03 1.07 1.15 1.23 1.31 1.46 1.55 1.66 1.71 1.83 1.98 2.10 2.24 2.33 2.23 1.98 1.89 1.86 1.80 1.63 1.41 1.29 1.16 0.99 1.11 1.20 1.40 1.24 1.11 1.06 0.83 0.64 0.58 0.60 0.65 0.69 0.76 0.81 0.96 1.15 1.38
1.02 0.95 0.90 0.86 0.83 0.81 0.85 1.03 1.22 1.34 1.45 1.61 1.80 1.93 1.94 1.99 2.17 2.12 1.94 1.91 1.81 1.67 1.53 1.35 1.26 1.13 1.28 1.21 1.35 1.18 1.20 1.27 0.94 0.72 0.63 0.61 0.59 0.54 0.53 0.52 0.50 0.54 0.63
1.01 0.99 0.90 0.83 0.90 0.89 0.85 0.91 0.96 1.02 1.10 1.25 1.40 1.53 1.68 1.93 2.21 2.23 2.18 2.06 1.92 1.76 1.52 1.38 1.18 1.10 1.39 1.48 1.39 1.26 1.23 1.22 0.99 0.86 0.71 0.65 0.62 0.57 0.52 0.47 0.45 0.41 0.42
0.68 0.77 0.85 0.80 0.78 0.80 0.82 0.88 0.90 0.94 0.97 1.05 1.15 1.27 1.44 1.74 2.07 2.29 2.37 2.27 2.12 1.96 1.80 1.65 1.32 1.08 1.19 1.53 1.66 1.59 1.36 1.20 1.08 1.02 0.88 0.75 0.70 0.63 0.57 0.54 0.52 0.48 0.44
0.52 0.56 0.65 0.65 0.73 0.80 0.83 0.85 0.87 0.91 0.93 1.02 1.16 1.21 1.27 1.47 1.66 1.87 2.06 2.18 2.17 2.14 2.09 1.85 1.55 1.29 1.22 1.35 1.60 1.62 1.55 1.50 1.29 1.22 1.21 1.08 0.94 0.84 0.73 0.63 0.61 0.56 0.49
0.54 0.59 0.71 0.75 0.70 0.68 0.73 0.84 0.88 0.84 0.83 0.87 0.96 1.05 1.15 1.20 1.35 1.50 1.60 1.79 2.00 2.23 2.29 2.14 1.88 1.56 1.44 1.32 1.43 1.58 1.66 1.61 1.52 1.34 1.30 1.20 1.18 1.11 0.99 0.83 0.69 0.61 0.59
0.59 0.61 0.71 0.81 0.87 0.83 0.80 0.89 0.86 0.84 0.84 0.83 0.88 0.88 0.95 0.97 1.03 1.22 1.26 1.48 1.80 2.06 2.17 2.23 2.11 1.81 1.55 1.37 1.17 1.27 1.52 1.74 1.74 1.65 1.65 1.42 1.29 1.15 1.07 1.02 0.95 0.82 0.72
0.48 0.47 0.51 0.58 0.68 0.72 0.93 0.89 0.74 0.70 0.75 0.82 0.87 0.87 0.89 0.83 0.81 0.87 1.01 1.14 1.43 1.64 1.77 1.84 1.87 1.72 1.51 1.37 1.33 1.29 1.36 1.50 1.55 1.44 1.47 1.55 1.50 1.36 1.26 1.13 1.15 1.18 1.09
0.40 0.38 0.37 0.38 0.44 0.60 0.68 0.52 0.51 0.57 0.71 0.83 0.90 0.92 0.89 0.84 0.88 0.89 0.91 0.92 0.99 1.17 1.38 1.57 1.60 1.50 1.56 1.47 1.39 1.29 1.31 1.32 1.31 1.40 1.46 1.52 1.51 1.42 1.35 1.34 1.36 1.26 1.20
0.30 0.29 0.37 0.44 0.46 0.48 0.54 0.44 0.43 0.54 0.73 0.87 0.87 0.83 0.89 0.91 0.94 1.00 0.93 1.00 0.95 0.94 1.02 1.07 1.21 1.41 1.55 1.71 1.69 1.58 1.59 1.53 1.44 1.52 1.53 1.48 1.39 1.32 1.23 1.21 1.27 1.14 1.06
0.34 0.37 0.49 0.56 0.50 0.42 0.46 0.48 0.53 0.68 0.81 0.89 0.86 0.85 0.93 0.97 1.10 1.15 1.06 1.11 1.07 1.03 1.00 1.11 1.20 1.30 1.38 1.50 1.65 1.69 1.64 1.60 1.47 1.41 1.42 1.36 1.25 1.27 1.26 1.15 1.08 1.06 0.96
0.31 0.39 0.41 0.38 0.38 0.44 0.51 0.50 0.63 0.81 0.93 1.03 0.99 0.99 1.17 1.12 1.10 1.05 1.03 1.17 1.14 0.99 0.92 0.96 1.01 1.09 1.12 1.22 1.35 1.39 1.51 1.57 1.48 1.35 1.19 1.17 1.17 1.21 1.25 1.15 1.03 0.96 0.91